Regional Weather Roundup
Issued by NWS

Home | Current Version | Previous Version | Text Only | Print | Product List | Glossary On
Versions: 1 2 3 4 5 6 7 8 9 10 11 12 13 14 15 16 17 18 19 20 21 22 23 24 25 26 27 28 29 30 31 32 33 34 35 36 37 38 39 40 41 42 43 44 45 46 47 48 49 50
169
ASUS43 KLOT 242008
RWRIL

ILLINOIS REGIONAL WEATHER ROUNDUP
NATIONAL WEATHER SERVICE CHICAGO/ROMEOVILLE IL
300 PM CDT TUE MAY 24 2016

NOTE: "FAIR" INDICATES FEW OR NO CLOUDS BELOW 12,000 FEET WITH NO
SIGNIFICANT WEATHER AND/OR OBSTRUCTIONS TO VISIBILITY.

* THESE STATIONS ARE NOT UNDER NWS QUALITY CONTROL. THEY ALSO MAY NOT
  REPORT WEATHER SUCH AS PRECIPITATION OR FOG.

ILZ001-002-007-009-015-016-024-242100-
NORTHWEST ILLINOIS

CITY           SKY/WX    TMP DP  RH WIND       PRES   REMARKS
MOLINE         SUNNY     87  57  35 S8        29.90S HX  86
STERLING*      SUNNY     85  58  39 S8G16     29.92F HX  84
SAVANNA*       MOSUNNY   86  60  41 SW10      29.91F HX  85
$$

ILZ003-004-008-010-011-017-018-242100-
NORTH CENTRAL ILLINOIS

CITY           SKY/WX    TMP DP  RH WIND       PRES   REMARKS
ROCKFORD       PTSUNNY   85  56  37 S9G20     29.94F HX  84
FREEPORT*      PTSUNNY   82  60  46 SW13      29.94F HX  82
ROCHELLE*      SUNNY     86  57  37 SW12G23   29.94F HX  85
DE KALB*       MOSUNNY   84  56  37 SW15G21   29.96S HX  83
$$

ILZ005-006-012>014-019>023-242100-
NORTHEAST ILLINOIS

CITY           SKY/WX    TMP DP  RH WIND       PRES   REMARKS
CHICAGO-OHARE  CLOUDY    82  51  34 S13G20    29.94F HX  81
CHICAGO-MIDWAY CLOUDY    88  48  25 SW14G21   29.95F HX  85
AURORA         MOSUNNY   87  52  29 SW13      29.95F HX  85
LANSING*       SUNNY     85  48  28 SW9G18    29.96F HX  82
JOLIET*        SUNNY     86  51  29 SW8       29.95S HX  84
WAUKEGAN       SUNNY     84  54  35 SW10G24   29.93F HX  83
DUPAGE AIRPORT MOSUNNY   86  52  30 S13       29.94F HX  84
KANKAKEE*      SUNNY    N/A N/A N/A SW14      29.96F
WHEELING       MOSUNNY   85  51  31 SW13G18   29.95F HX  83
MORRIS*        MOSUNNY   88  48  25 S14G22    29.93F HX  85
ROMEOVILLE*    MOSUNNY   86  44  22 SW15      29.95F HX  83
NORTHERLY ISL    N/A     85  44  23 SW13        N/A  HX  82
NORTHERLY ISL    N/A     85  44  23 SW13        N/A  HX  82
$$

LMZ740>746-242100-
SOUTHERN LAKE MICHIGAN

STATION/POSITION SKY/WX   TEMP    WIND        PRES    VSBY  WAVE
                          AIR SEA DIR/SP/G                  HT/PER
                          (F)     (DEG/KT/KT) (MB)    (MI)  (FT/S)
SOUTHERN BUOY              56 48  150/ 10/ 12 1014.4F         1
WILMETTE HARBOR               56  220/  8/ 12   N/A           1/ 2
HARRISON CRIB              82     200/ 11/ 14   N/A
BURNHAM HARBOR             85     200/ 12/ 17   N/A
CALUMET HARBOR             84     190/ 13/ 17 1014.1F
BURNS HARBOR               82     210/ 18/ 21 1015.2F
MICHIGAN CITY              81     190/ 16/ 18   N/A
MICHIGAN CITY 6N           74 61  220/ 10/ 14   N/A           1/ 2
ST. JOSEPH                 72 68   60/  4/  4   N/A           0
$$

ILZ025>027-034>036-040-047-049-050-058-095>099-242100-
WEST-CENTRAL ILLINOIS

CITY           SKY/WX    TMP DP  RH WIND       PRES   REMARKS
QUINCY         PTSUNNY   81  62  52 S15       29.95F HX  82
GALESBURG*     SUNNY     83  60  44 S10G18    29.93F HX  83
MACOMB*        CLOUDY    85  59  40 SW13      29.96F HX  84
JACKSONVILLE*  CLOUDY    83  60  45 S13       29.95S HX  84
PITTSFIELD*    PTSUNNY   82  65  56 S9G17     29.99R HX  83
$$

ILZ028>032-037-038-041>044-048-051>054-059>061-242100-
CENTRAL ILLINOIS

CITY           SKY/WX    TMP DP  RH WIND       PRES   REMARKS
PONTIAC        SUNNY     88  54  31 SW16      29.96S HX  86
BLOOMINGTON    MOSUNNY   85  57  38 S18G26    29.99R HX  84
DECATUR        SUNNY     83  58  42 S18G28    29.99S HX  83
PEORIA         SUNNY     85  58  39 S15G21    29.94F HX  84
LACON*         SUNNY     84  56  38 SW10      29.94S HX  83
LINCOLN*       MOSUNNY   85  62  46 S9G21     29.97R HX  85
SPRINGFIELD    SUNNY     84  61  45 S13G22    29.96F HX  84
TAYLORVILLE    SUNNY     82  59  45 S17G23    29.98F HX  82
$$

ILZ033-039-045-046-055>057-062-063-242100-
EAST-CENTRAL ILLINOIS

CITY           SKY/WX    TMP DP  RH WIND       PRES   REMARKS
CHAMPAIGN      SUNNY     87  51  28 S20G30    29.99F HX  85
RANTOUL*       MOSUNNY   88  54  31 S15G26    29.98F HX  86
MATTOON        PTSUNNY   81  54  39 S13G23    30.02R HX  81
PARIS*         MOSUNNY   84  54  35 S9        30.02S HX  83
$$

ILZ079-100>102-242100-
SOUTHWEST ILLINOIS

CITY           SKY/WX    TMP DP  RH WIND       PRES   REMARKS
ALTON          PTSUNNY   81  63  54 S12       29.98F HX  82
CAHOKIA*       CLOUDY    81  64  56 S8        29.98F HX  82
SPARTA*        CLOUDY    80  65  59 S13       30.02S HX  82
$$

ILZ064>066-069>071-074>076-080>082-084>086-088>090-092>094-242100-
SOUTH-CENTRAL ILLINOIS

CITY           SKY/WX    TMP DP  RH WIND       PRES   REMARKS
CARBONDALE     PTSUNNY   82  61  48 S16G22    30.03S HX  83
CAIRO*         MOSUNNY   83  62  49 SW13      30.05S HX  84
EFFINGHAM*     PTSUNNY   80  59  48 S10G20    30.04S HX  81
MARION         PTSUNNY   82  64  54 S14       30.04S HX  84
MT. VERNON     CLOUDY    79  61  53 S12       30.05R HX  80
CENTRALIA*     CLOUDY    80  64  58 S9        30.02S HX  81
SALEM*         CLOUDY    79  61  52 S6        30.03S HX  80
METROPOLIS*    MOSUNNY   84  64  50 SW9       30.05S HX  85
$$

ILZ067-068-072-073-078-083-087-091-242100-
SOUTHEAST ILLINOIS

CITY           SKY/WX    TMP DP  RH WIND       PRES   REMARKS
LAWRENCEVILLE  SUNNY     84  56  38 S17       30.04S HX  83
FLORA*         PTSUNNY   80  60  49 S12       30.04S HX  81
FAIRFIELD*     PTSUNNY   80  58  46 S10       30.04R HX  80
HARRISBURG*    CLOUDY    78  63  59 S3        30.05S HX  80
ROBINSON*      SUNNY     81  57  44 S15G21    30.04R HX  81
CARMI*         CLOUDY    79  61  53 SW8       30.04S HX  80
$$

ABBREVIATIONS USED IN REMARKS
   TC - TEMPERATURE IN CELSIUS
  WCI - WIND CHILL INDEX
   HX - HEAT INDEX
  VSB - VISIBILITY
$$





USA.gov is the U.S. government's official web portal to all federal, state and local government web resources and services.